ProjectID,Date,Electric Generation,Electric Utility Import,Facility Electric Load
,YYYY-MM-DD,kW,kW,kW
175,2014-02-01,0.0,,0.0
175,2014-02-02,0.0,,0.0
175,2014-02-03,0.0,,0.0
175,2014-02-04,0.0,,0.0
175,2014-02-05,0.0,,0.0
175,2014-02-06,0.0,,0.0
175,2014-02-07,0.0,,0.0
175,2014-02-08,0.0,,0.0
175,2014-02-09,0.0,,0.0
175,2014-02-10,0.0,,0.0
175,2014-02-11,0.0,,0.0
175,2014-02-12,0.0,,0.0
175,2014-02-13,0.0,,0.0
175,2014-02-14,0.08762500000000001,,0.08762500000000001
175,2014-02-15,0.3252083333333334,,0.3252083333333334
175,2014-02-16,0.12504166666666666,,0.12504166666666666
175,2014-02-17,1.037625,,1.037625
175,2014-02-18,4.387416666666668,,4.387416666666668
175,2014-02-19,40.837291666666665,,40.837291666666665
175,2014-02-20,59.58758333333333,,59.58758333333333
175,2014-02-21,28.53758333333333,,28.53758333333333
175,2014-02-22,111.90000000000002,,111.90000000000002
175,2014-02-23,128.38750000000002,,128.38750000000002
175,2014-02-24,21.600125000000002,,21.600125000000002
175,2014-02-25,6.25,,6.25
175,2014-02-26,21.125000000000004,,21.125000000000004
175,2014-02-27,32.81254166666667,,32.81254166666667
175,2014-02-28,2.4123750000000004,,2.4123750000000004
175,2014-03-01,3.7499583333333333,,3.7499583333333333
175,2014-03-02,1.3875416666666665,,1.3875416666666665
175,2014-03-03,2.3251666666666666,,2.3251666666666666
175,2014-03-04,1.2749166666666667,,1.2749166666666667
175,2014-03-05,2.6001250000000002,,2.6001250000000002
175,2014-03-06,12.325083333333332,,12.325083333333332
175,2014-03-07,124.62495833333332,,124.62495833333332
175,2014-03-08,41.049916666666675,,41.049916666666675
175,2014-03-09,127.34991666666666,,127.34991666666666
175,2014-03-10,74.850125,,74.850125
175,2014-03-11,149.0,,149.0
175,2014-03-12,0.40025,,0.40025
175,2014-03-13,19.450041666666667,,19.450041666666667
175,2014-03-14,87.50004166666666,,87.50004166666666
175,2014-03-15,36.78745833333333,,36.78745833333333
175,2014-03-16,119.23766666666667,,119.23766666666667
175,2014-03-17,159.15008333333333,,159.15008333333333
175,2014-03-18,168.462375,,168.462375
175,2014-03-19,87.65004166666667,,87.65004166666667
175,2014-03-20,28.612458333333336,,28.612458333333336
175,2014-03-21,90.85016666666667,,90.85016666666667
175,2014-03-22,51.199875,,51.199875
175,2014-03-23,12.750166666666665,,12.750166666666665
175,2014-03-24,9.249833333333333,,9.249833333333333
175,2014-03-25,83.92491666666668,,83.92491666666668
175,2014-03-26,132.05004166666666,,132.05004166666666
175,2014-03-27,90.86254166666667,,90.86254166666667
175,2014-03-28,21.762708333333332,,21.762708333333332
175,2014-03-29,42.362375,,42.362375
175,2014-03-30,4.14975,,4.14975
175,2014-03-31,159.38733333333332,,159.38733333333332
175,2014-04-01,105.69979166666667,,105.69979166666667
175,2014-04-02,169.88766666666666,,169.88766666666666
175,2014-04-03,136.46254166666665,,136.46254166666665
175,2014-04-04,32.11233333333333,,32.11233333333333
175,2014-04-05,67.35020833333333,,67.35020833333333
175,2014-04-06,176.86195833333332,,176.86195833333332
175,2014-04-07,41.837875,,41.837875
175,2014-04-08,31.84991666666667,,31.84991666666667
175,2014-04-09,28.087208333333336,,28.087208333333336
175,2014-04-10,148.47529166666666,,148.47529166666666
175,2014-04-11,98.56250000000001,,98.56250000000001
175,2014-04-12,0.012041666666666666,,0.012041666666666666
175,2014-04-13,0.16245833333333334,,0.16245833333333334
175,2014-04-14,0.025416666666666667,,0.025416666666666667
175,2014-04-15,0.012708333333333334,,0.012708333333333334
175,2014-04-16,163.62466666666668,,163.62466666666668
175,2014-04-17,174.70016666666666,,174.70016666666666
175,2014-04-18,142.55041666666665,,142.55041666666665
175,2014-04-19,144.6625,,144.6625
175,2014-04-20,177.42545833333335,,177.42545833333335
175,2014-04-21,146.01204166666668,,146.01204166666668
175,2014-04-22,47.163083333333326,,47.163083333333326
175,2014-04-23,49.224541666666674,,49.224541666666674
175,2014-04-24,184.46225,,184.46225
175,2014-04-25,117.57554166666667,,117.57554166666667
175,2014-04-26,59.61204166666667,,59.61204166666667
175,2014-04-27,138.10029166666666,,138.10029166666666
175,2014-04-28,145.775375,,145.775375
175,2014-04-29,47.574916666666674,,47.574916666666674
175,2014-04-30,19.23704166666667,,19.23704166666667
175,2014-05-01,79.237625,,79.237625
175,2014-05-02,70.52479166666667,,70.52479166666667
175,2014-05-03,92.9375,,92.9375
175,2014-05-04,130.612625,,130.612625
175,2014-05-05,180.06320833333334,,180.06320833333334
175,2014-05-06,163.88741666666667,,163.88741666666667
175,2014-05-07,154.324875,,154.324875
175,2014-05-08,156.387375,,156.387375
175,2014-05-09,138.50004166666668,,138.50004166666668
175,2014-05-10,130.26241666666667,,130.26241666666667
175,2014-05-11,183.7878333333334,,183.7878333333334
175,2014-05-12,160.18754166666668,,160.18754166666668
175,2014-05-13,143.050125,,143.050125
175,2014-05-14,129.675125,,129.675125
175,2014-05-15,132.72525,,132.72525
175,2014-05-16,38.32554166666666,,38.32554166666666
175,2014-05-17,137.14983333333333,,137.14983333333333
175,2014-05-18,166.199875,,166.199875
175,2014-05-19,142.31254166666668,,142.31254166666668
175,2014-05-20,142.14983333333333,,142.14983333333333
175,2014-05-21,129.69995833333334,,129.69995833333334
175,2014-05-22,145.03779166666666,,145.03779166666666
175,2014-05-23,36.12508333333333,,36.12508333333333
175,2014-05-24,166.76241666666667,,166.76241666666667
175,2014-05-25,157.12508333333335,,157.12508333333335
175,2014-05-26,175.79950000000005,,175.79950000000005
175,2014-05-27,133.362625,,133.362625
175,2014-05-28,81.06254166666666,,81.06254166666666
175,2014-05-29,110.75,,110.75
175,2014-05-30,181.262375,,181.262375
175,2014-05-31,186.93749999999997,,186.93749999999997
175,2014-06-01,184.2129166666667,,184.2129166666667
175,2014-06-02,165.41275,,165.41275
175,2014-06-03,109.724625,,109.724625
175,2014-06-04,124.12504166666668,,124.12504166666668
175,2014-06-05,110.1875,,110.1875
175,2014-06-06,173.81316666666666,,173.81316666666666
175,2014-06-07,185.56258333333332,,185.56258333333332
175,2014-06-08,129.1004166666667,,129.1004166666667
175,2014-06-09,104.06266666666669,,104.06266666666669
175,2014-06-10,110.27479166666667,,110.27479166666667
175,2014-06-11,88.66154166666666,,88.66154166666666
175,2014-06-12,65.89979166666666,,65.89979166666666
175,2014-06-13,90.11200000000001,,90.11200000000001
175,2014-06-14,92.29954166666668,,92.29954166666668
175,2014-06-15,175.12504166666668,,175.12504166666668
175,2014-06-16,139.73712500000002,,139.73712500000002
175,2014-06-17,145.10029166666666,,145.10029166666666
175,2014-06-18,94.87508333333335,,94.87508333333335
175,2014-06-19,189.68625,,189.68625
175,2014-06-20,178.6629166666667,,178.6629166666667
175,2014-06-21,181.75137500000002,,181.75137500000002
175,2014-06-22,173.5495,,173.5495
175,2014-06-23,157.54954166666667,,157.54954166666667
175,2014-06-24,124.388125,,124.388125
175,2014-06-25,47.92333333333334,,47.92333333333334
175,2014-06-26,175.213625,,175.213625
175,2014-06-27,165.08741666666668,,165.08741666666668
175,2014-06-28,171.0365416666667,,171.0365416666667
175,2014-06-29,147.40108333333333,,147.40108333333333
175,2014-06-30,140.33733333333333,,140.33733333333333
175,2014-07-01,147.41158333333334,,147.41158333333334
175,2014-07-02,110.22533333333332,,110.22533333333332
175,2014-07-03,74.84904166666666,,74.84904166666666
175,2014-07-04,167.88808333333336,,167.88808333333336
175,2014-07-05,183.15116666666668,,183.15116666666668
175,2014-07-06,175.66150000000002,,175.66150000000002
175,2014-07-07,93.600375,,93.600375
175,2014-07-08,118.48708333333333,,118.48708333333333
175,2014-07-09,129.0379166666667,,129.0379166666667
175,2014-07-10,184.65108333333333,,184.65108333333333
175,2014-07-11,180.51179166666668,,180.51179166666668
175,2014-07-12,168.57429166666665,,168.57429166666665
175,2014-07-13,47.813874999999996,,47.813874999999996
175,2014-07-14,122.03654166666668,,122.03654166666668
175,2014-07-15,107.24874999999999,,107.24874999999999
175,2014-07-16,141.50008333333335,,141.50008333333335
175,2014-07-17,119.16291666666667,,119.16291666666667
175,2014-07-18,174.53791666666666,,174.53791666666666
175,2014-07-19,115.00012500000001,,115.00012500000001
175,2014-07-20,127.35041666666667,,127.35041666666667
175,2014-07-21,143.20062500000003,,143.20062500000003
175,2014-07-22,150.225375,,150.225375
175,2014-07-23,102.50004166666668,,102.50004166666668
175,2014-07-24,170.56254166666668,,170.56254166666668
175,2014-07-25,163.89983333333333,,163.89983333333333
175,2014-07-26,134.51174999999998,,134.51174999999998
175,2014-07-27,141.93758333333332,,141.93758333333332
175,2014-07-28,19.161541666666665,,19.161541666666665
175,2014-07-29,137.912875,,137.912875
175,2014-07-30,114.51175,,114.51175
175,2014-07-31,132.399875,,132.399875
175,2014-08-01,139.91283333333334,,139.91283333333334
175,2014-08-02,145.70058333333333,,145.70058333333333
175,2014-08-03,87.713625,,87.713625
175,2014-08-04,133.63679166666665,,133.63679166666665
175,2014-08-05,95.17454166666668,,95.17454166666668
175,2014-08-06,163.42583333333334,,163.42583333333334
175,2014-08-07,168.1615416666667,,168.1615416666667
175,2014-08-08,164.72529166666666,,164.72529166666666
175,2014-08-09,169.11333333333334,,169.11333333333334
175,2014-08-10,168.51304166666668,,168.51304166666668
175,2014-08-11,152.82429166666668,,152.82429166666668
175,2014-08-12,48.76170833333333,,48.76170833333333
175,2014-08-13,98.76179166666668,,98.76179166666668
175,2014-08-14,87.17583333333334,,87.17583333333334
175,2014-08-15,87.075625,,87.075625
175,2014-08-16,73.79825000000001,,73.79825000000001
175,2014-08-17,112.68758333333334,,112.68758333333334
175,2014-08-18,132.07429166666665,,132.07429166666665
175,2014-08-19,147.875,,147.875
175,2014-08-20,47.27470833333333,,47.27470833333333
175,2014-08-21,98.10033333333332,,98.10033333333332
175,2014-08-22,93.71229166666666,,93.71229166666666
175,2014-08-23,67.86204166666667,,67.86204166666667
175,2014-08-24,161.05083333333332,,161.05083333333332
175,2014-08-25,156.08733333333336,,156.08733333333336
175,2014-08-26,160.95058333333336,,160.95058333333336
175,2014-08-27,117.325625,,117.325625
175,2014-08-28,117.05075000000001,,117.05075000000001
175,2014-08-29,158.44925,,158.44925
175,2014-08-30,154.250125,,154.250125
175,2014-08-31,51.25270833333334,,51.25270833333334
175,2014-09-01,138.648625,,138.648625
175,2014-09-02,79.52612500000002,,79.52612500000002
175,2014-09-03,151.80225000000002,,151.80225000000002
175,2014-09-04,137.1485416666667,,137.1485416666667
175,2014-09-05,151.57566666666668,,151.57566666666668
175,2014-09-06,33.93758333333333,,33.93758333333333
175,2014-09-07,160.15120833333336,,160.15120833333336
175,2014-09-08,154.497625,,154.497625
175,2014-09-09,129.35170833333333,,129.35170833333333
175,2014-09-10,102.43766666666669,,102.43766666666669
175,2014-09-11,41.263124999999995,,41.263124999999995
175,2014-09-12,107.18770833333333,,107.18770833333333
175,2014-09-13,46.838666666666676,,46.838666666666676
175,2014-09-14,151.2371666666667,,151.2371666666667
175,2014-09-15,132.96366666666668,,132.96366666666668
175,2014-09-16,125.34908333333335,,125.34908333333335
175,2014-09-17,136.36208333333335,,136.36208333333335
175,2014-09-18,60.56258333333334,,60.56258333333334
175,2014-09-19,162.47412500000002,,162.47412500000002
175,2014-09-20,105.51308333333333,,105.51308333333333
175,2014-09-21,76.81262500000001,,76.81262500000001
175,2014-09-22,51.72670833333334,,51.72670833333334
175,2014-09-23,148.58604166666666,,148.58604166666666
175,2014-09-24,154.4115416666667,,154.4115416666667
175,2014-09-25,128.16420833333333,,128.16420833333333
175,2014-09-26,152.32566666666668,,152.32566666666668
175,2014-09-27,149.8360416666667,,149.8360416666667
175,2014-09-28,140.92720833333337,,140.92720833333337
175,2014-09-29,138.42458333333335,,138.42458333333335
175,2014-09-30,126.075625,,126.075625
175,2014-10-01,59.661625000000015,,59.661625000000015
175,2014-10-02,97.31266666666669,,97.31266666666669
175,2014-10-03,125.75012500000001,,125.75012500000001
175,2014-10-04,48.047000000000004,,48.047000000000004
175,2014-10-05,86.82566666666668,,86.82566666666668
175,2014-10-06,106.56262500000001,,106.56262500000001
175,2014-10-07,102.68762500000001,,102.68762500000001
175,2014-10-08,63.52358333333334,,63.52358333333334
175,2014-10-09,127.42716666666668,,127.42716666666668
175,2014-10-10,97.49754166666668,,97.49754166666668
175,2014-10-11,86.97675,,86.97675
175,2014-10-12,144.40900000000002,,144.40900000000002
175,2014-10-13,67.73970833333334,,67.73970833333334
175,2014-10-14,96.91162500000002,,96.91162500000002
175,2014-10-15,25.526166666666665,,25.526166666666665
175,2014-10-16,53.47408333333334,,53.47408333333334
175,2014-10-17,42.95066666666668,,42.95066666666668
175,2014-10-18,26.888208333333328,,26.888208333333328
175,2014-10-19,25.713624999999997,,25.713624999999997
175,2014-10-20,40.312666666666665,,40.312666666666665
175,2014-10-21,18.760583333333333,,18.760583333333333
175,2014-10-22,29.46370833333333,,29.46370833333333
175,2014-10-23,48.088666666666676,,48.088666666666676
175,2014-10-24,118.78654166666666,,118.78654166666666
175,2014-10-25,66.46108333333335,,66.46108333333335
175,2014-10-26,10.851624999999999,,10.851624999999999
175,2014-10-27,116.07566666666668,,116.07566666666668
175,2014-10-28,67.06262500000001,,67.06262500000001
175,2014-10-29,23.075625,,23.075625
175,2014-10-30,24.450625,,24.450625
175,2014-10-31,42.937625,,42.937625
175,2014-11-01,23.325666666666667,,23.325666666666667
175,2014-11-02,87.82566666666668,,87.82566666666668
175,2014-11-03,90.93762500000001,,90.93762500000001
175,2014-11-04,56.92466666666669,,56.92466666666669
175,2014-11-05,83.13816666666668,,83.13816666666668
175,2014-11-06,5.776125,,5.776125
175,2014-11-07,21.185,,21.185
175,2014-11-08,28.752749999999995,,28.752749999999995
175,2014-11-09,43.138125,,43.138125
175,2014-11-10,76.46104166666667,,76.46104166666667
175,2014-11-11,111.87508333333334,,111.87508333333334
175,2014-11-12,71.2605,,71.2605
175,2014-11-13,16.0105,,16.0105
175,2014-11-14,58.81000000000001,,58.81000000000001
175,2014-11-15,44.72670833333334,,44.72670833333334
175,2014-11-16,27.286458333333332,,27.286458333333332
175,2014-11-17,0.2474583333333333,,0.2474583333333333
175,2014-11-18,21.851708333333335,,21.851708333333335
175,2014-11-19,37.187625,,37.187625
175,2014-11-20,12.739708333333333,,12.739708333333333
175,2014-11-21,27.200666666666667,,27.200666666666667
175,2014-11-22,16.62770833333333,,16.62770833333333
175,2014-11-23,16.901124999999997,,16.901124999999997
175,2014-11-24,65.56262500000001,,65.56262500000001
175,2014-11-25,62.838625,,62.838625
175,2014-11-26,5.950625,,5.950625
175,2014-11-27,0.020833333333333332,,0.020833333333333332
175,2014-11-28,0.013041666666666667,,0.013041666666666667
175,2014-11-29,0.09383333333333332,,0.09383333333333332
175,2014-11-30,23.408875,,23.408875
175,2014-12-01,21.763125000000002,,21.763125000000002
175,2014-12-02,56.17458333333334,,56.17458333333334
175,2014-12-03,5.812625,,5.812625
175,2014-12-04,35.323,,35.323
175,2014-12-05,17.161583333333333,,17.161583333333333
175,2014-12-06,7.8620416666666655,,7.8620416666666655
175,2014-12-07,101.08866666666667,,101.08866666666667
175,2014-12-08,37.726749999999996,,37.726749999999996
175,2014-12-09,34.424625,,34.424625
175,2014-12-10,0.0,,0.0
175,2014-12-11,0.026083333333333333,,0.026083333333333333
175,2014-12-12,0.013041666666666667,,0.013041666666666667
175,2014-12-13,0.026083333333333333,,0.026083333333333333
175,2014-12-14,1.8958750000000002,,1.8958750000000002
175,2014-12-15,9.575625,,9.575625
175,2014-12-16,15.010541666666667,,15.010541666666667
175,2014-12-17,13.987,,13.987
175,2014-12-18,1.9479583333333335,,1.9479583333333335
175,2014-12-19,2.278791666666667,,2.278791666666667
175,2014-12-20,5.976708333333332,,5.976708333333332
175,2014-12-21,4.937583333333333,,4.937583333333333
175,2014-12-22,66.21370833333333,,66.21370833333333
175,2014-12-23,13.213666666666667,,13.213666666666667
175,2014-12-24,10.2735,,10.2735
175,2014-12-25,13.122499999999997,,13.122499999999997
175,2014-12-26,64.67458333333333,,64.67458333333333
175,2014-12-27,46.450625,,46.450625
175,2014-12-28,9.750124999999999,,9.750124999999999
175,2014-12-29,5.349083333333333,,5.349083333333333
175,2014-12-30,1.596416666666667,,1.596416666666667
175,2014-12-31,6.198041666666666,,6.198041666666666
175,2015-01-01,11.198,,11.198
175,2015-01-02,11.539125,,11.539125
175,2015-01-03,6.763166666666666,,6.763166666666666
175,2015-01-04,17.875083333333333,,17.875083333333333
175,2015-01-05,78.77095833333334,,78.77095833333334
175,2015-01-06,39.12508333333333,,39.12508333333333
175,2015-01-07,8.242291666666665,,8.242291666666665
175,2015-01-08,2.7605416666666667,,2.7605416666666667
175,2015-01-09,32.46366666666666,,32.46366666666666
175,2015-01-10,56.32558333333333,,56.32558333333333
175,2015-01-11,28.312583333333333,,28.312583333333333
175,2015-01-12,0.6693749999999999,,0.6693749999999999
175,2015-01-13,4.575666666666667,,4.575666666666667
175,2015-01-14,6.651166666666666,,6.651166666666666
175,2015-01-15,11.976708333333333,,11.976708333333333
175,2015-01-16,18.252666666666666,,18.252666666666666
175,2015-01-17,38.19804166666666,,38.19804166666666
175,2015-01-18,19.502749999999995,,19.502749999999995
175,2015-01-19,22.013166666666663,,22.013166666666663
175,2015-01-20,11.713625,,11.713625
175,2015-01-21,18.276166666666665,,18.276166666666665
175,2015-01-22,73.27354166666667,,73.27354166666667
175,2015-01-23,76.01058333333334,,76.01058333333334
175,2015-01-24,33.23708333333333,,33.23708333333333
175,2015-01-25,52.82566666666668,,52.82566666666668
175,2015-01-26,22.476666666666663,,22.476666666666663
175,2015-01-27,5.106875,,5.106875
175,2015-01-28,27.23708333333333,,27.23708333333333
175,2015-01-29,10.549541666666666,,10.549541666666666
175,2015-01-30,1.0469583333333332,,1.0469583333333332
175,2015-01-31,2.049583333333333,,2.049583333333333
175,2015-02-01,1.9193750000000005,,1.9193750000000005
175,2015-02-02,0.026083333333333333,,0.026083333333333333
175,2015-02-03,0.17716666666666667,,0.17716666666666667
175,2015-02-04,0.013041666666666667,,0.013041666666666667
175,2015-02-05,0.026083333333333333,,0.026083333333333333
175,2015-02-06,0.06258333333333332,,0.06258333333333332
175,2015-02-07,0.013041666666666667,,0.013041666666666667
175,2015-02-08,0.013041666666666667,,0.013041666666666667
175,2015-02-09,0.013041666666666667,,0.013041666666666667
175,2015-02-10,0.026083333333333333,,0.026083333333333333
175,2015-02-11,1.099,,1.099
175,2015-02-12,0.8048333333333333,,0.8048333333333333
175,2015-02-13,0.0365,,0.0365
175,2015-02-14,0.013041666666666667,,0.013041666666666667
175,2015-02-15,0.026083333333333333,,0.026083333333333333
175,2015-02-16,0.013041666666666667,,0.013041666666666667
175,2015-02-17,0.013041666666666667,,0.013041666666666667
175,2015-02-18,0.013041666666666667,,0.013041666666666667
175,2015-02-19,0.013041666666666667,,0.013041666666666667
175,2015-02-20,0.026083333333333333,,0.026083333333333333
175,2015-02-21,0.013041666666666667,,0.013041666666666667
175,2015-02-22,0.013041666666666667,,0.013041666666666667
175,2015-02-23,0.026083333333333333,,0.026083333333333333
175,2015-02-24,0.013041666666666667,,0.013041666666666667
175,2015-02-25,0.0,,0.0
175,2015-02-26,0.0,,0.0
175,2015-02-27,0.0,,0.0
175,2015-02-28,0.0,,0.0
175,2015-03-01,0.0,,0.0
175,2015-03-02,0.0,,0.0
175,2015-03-03,0.0,,0.0
175,2015-03-04,0.0,,0.0
175,2015-03-05,0.039125,,0.039125
175,2015-03-06,16.414166666666663,,16.414166666666663
175,2015-03-07,14.560083333333331,,14.560083333333331
175,2015-03-08,22.453249999999997,,22.453249999999997
175,2015-03-09,50.04958333333334,,50.04958333333334
175,2015-03-10,39.37525,,39.37525
175,2015-03-11,103.13825000000003,,103.13825000000003
175,2015-03-12,122.42725000000002,,122.42725000000002
175,2015-03-13,113.06266666666669,,113.06266666666669
175,2015-03-14,41.87508333333333,,41.87508333333333
175,2015-03-15,16.41420833333333,,16.41420833333333
175,2015-03-16,99.12516666666669,,99.12516666666669
175,2015-03-17,72.68762500000001,,72.68762500000001
175,2015-03-18,53.375166666666665,,53.375166666666665
175,2015-03-19,65.03916666666667,,65.03916666666667
175,2015-03-20,52.96362500000001,,52.96362500000001
175,2015-03-21,32.825624999999995,,32.825624999999995
175,2015-03-22,7.664208333333332,,7.664208333333332
175,2015-03-23,69.31266666666669,,69.31266666666669
175,2015-03-24,124.58870833333334,,124.58870833333334
175,2015-03-25,76.362125,,76.362125
175,2015-03-26,26.54958333333333,,26.54958333333333
175,2015-03-27,77.03916666666667,,77.03916666666667
175,2015-03-28,118.89858333333335,,118.89858333333335
175,2015-03-29,129.27354166666666,,129.27354166666666
175,2015-03-30,49.77616666666666,,49.77616666666666
175,2015-03-31,112.45070833333335,,112.45070833333335
175,2015-04-01,87.75012500000001,,87.75012500000001
175,2015-04-02,127.38820833333334,,127.38820833333334
175,2015-04-03,119.73708333333333,,119.73708333333333
175,2015-04-04,137.23970833333334,,137.23970833333334
175,2015-04-05,60.937625000000004,,60.937625000000004
175,2015-04-06,128.125125,,128.125125
175,2015-04-07,77.10175000000002,,77.10175000000002
175,2015-04-08,19.211041666666667,,19.211041666666667
175,2015-04-09,72.93758333333334,,72.93758333333334
175,2015-04-10,47.82570833333333,,47.82570833333333
175,2015-04-11,104.43770833333333,,104.43770833333333
175,2015-04-12,178.72412500000004,,178.72412500000004
175,2015-04-13,157.34912500000004,,157.34912500000004
175,2015-04-14,155.01320833333335,,155.01320833333335
175,2015-04-15,183.95062499999997,,183.95062499999997
175,2015-04-16,161.0626666666667,,161.0626666666667
175,2015-04-17,74.87512500000001,,74.87512500000001
175,2015-04-18,177.299625,,177.299625
175,2015-04-19,177.34916666666672,,177.34916666666672
175,2015-04-20,82.47670833333335,,82.47670833333335
175,2015-04-21,98.92458333333333,,98.92458333333333
175,2015-04-22,48.687625000000004,,48.687625000000004
175,2015-04-23,15.963666666666667,,15.963666666666667
175,2015-04-24,90.87512500000001,,90.87512500000001
175,2015-04-25,190.39866666666668,,190.39866666666668
175,2015-04-26,155.2891666666667,,155.2891666666667
175,2015-04-27,105.07566666666668,,105.07566666666668
175,2015-04-28,182.32558333333336,,182.32558333333336
175,2015-04-29,185.3985416666667,,185.3985416666667
175,2015-04-30,177.15120833333336,,177.15120833333336
175,2015-05-01,180.71370833333336,,180.71370833333336
175,2015-05-02,180.625125,,180.625125
175,2015-05-03,177.28920833333333,,177.28920833333333
175,2015-05-04,106.96108333333335,,106.96108333333335
175,2015-05-05,125.27620833333334,,125.27620833333334
175,2015-05-06,186.77625000000003,,186.77625000000003
175,2015-05-07,180.46108333333336,,180.46108333333336
175,2015-05-08,174.52629166666668,,174.52629166666668
175,2015-05-09,135.67458333333335,,135.67458333333335
175,2015-05-10,100.16162500000002,,100.16162500000002
175,2015-05-11,98.18766666666669,,98.18766666666669
175,2015-05-12,150.12516666666667,,150.12516666666667
175,2015-05-13,116.98975,,116.98975
175,2015-05-14,190.22416666666672,,190.22416666666672
175,2015-05-15,105.90116666666667,,105.90116666666667
175,2015-05-16,109.28662500000002,,109.28662500000002
175,2015-05-17,184.76329166666667,,184.76329166666667
175,2015-05-18,122.05229166666669,,122.05229166666669
175,2015-05-19,175.099125,,175.099125
175,2015-05-20,154.60175,,154.60175
175,2015-05-21,178.26054166666665,,178.26054166666665
175,2015-05-22,188.823125,,188.823125